#timestamp,LO_Frequency,Hit,StdDev 
1565719215.4,286047009.5,N
1565719235.2,286047007.7,N
1565719255.1,286047012.3,N
1565719256.0,286047012.3,N
1565719275.8,286047009.5,N
1565719295.7,286047010.5,N
1565719315.5,286047008.4,N
1565719335.3,286047010.3,N
1565719355.2,286047009.9,Y
1565719375.0,286047003.6,P
1565719375.9,286047003.6,N
1565719395.8,286047003.6,N
1565719415.6,286047005.6,Y
1565719435.4,286047001.7,P
1565719455.3,286047000.4,N
1565719475.1,286047000.9,N
1565719495.8,286047000.6,N
1565719515.7,286046998.7,N
1565719535.5,286047000.3,N
1565719555.4,286047000.2,N
1565719575.2,286047001.7,N
1565719595.0,286047003.2,N
1565719595.9,286047003.2,N
1565719615.8,286047004.3,N
1565719635.6,286047004.0,N
1565719655.4,286047002.8,N
1565719675.3,286047003.6,N
1565719695.1,286047004.4,N
1565719715.9,286047005.9,Y
1565719735.7,286047001.3,P
1565719755.5,286047003.3,P
1565719775.4,286047003.1,P
1565719795.2,286047003.5,Y
1565719815.1,286046999.8,P
1565719816.0,286046999.8,N
1565719835.8,286047002.0,N
1565719855.6,286047001.7,N
1565719875.5,286047003.7,Y
1565719895.3,286047002.5,P
1565719915.1,286046999.7,N
1565719935.9,286047001.7,N
1565719955.7,286047001.8,N
1565719975.6,286047003.9,Y
1565719995.4,286047002.7,P
1565720015.2,286047001.2,N
1565720035.1,286047000.5,N
1565720036.0,286047000.5,N
1565720055.8,286047002.0,N
1565720075.7,286047002.5,Y
1565720095.5,286047000.3,P
1565720115.3,286047001.1,N
1565720135.2,286046998.5,P
1565720155.0,286047000.3,N
1565720155.9,286047000.3,N
1565720175.7,286047000.3,N
1565720195.6,286047000.5,N
1565720215.4,286047004.3,Y
1565720235.3,286046999.9,P
1565720255.1,286047000.5,N
1565720256.0,286047000.5,N
1565720275.8,286047000.0,N
1565720295.7,286047002.6,Y
1565720315.5,286047000.0,P
1565720335.4,286047000.2,N
1565720355.2,286047002.8,P
1565720375.0,286047002.1,N
1565720375.9,286047002.1,N
1565720395.8,286047000.3,N
1565720445.6,286047001.3,E
1565720455.6,286047000.6,N
1565720475.4,286046998.8,P
1565720495.2,286047000.3,N
1565720515.1,286047000.8,N
1565720516.0,286047000.8,N
1565720535.8,286046998.9,N
1565720555.7,286047002.8,Y
1565720575.5,286047000.0,P
1565720595.3,286047000.6,P
1565720615.2,286046999.3,N
1565720635.9,286047000.2,N
1565720655.7,286047000.3,N
1565720675.6,286047000.9,N
1565720695.4,286047001.5,Y
1565720715.3,286047002.5,P
1565720735.1,286047001.7,N
1565720736.0,286047001.7,N
1565720755.8,286047004.4,Y
1565720775.7,286047000.5,P
1565720795.5,286047001.0,N
1565720815.3,286046998.9,N
1565720835.2,286047000.5,N
1565720855.0,286047002.4,N
1565720855.9,286047002.4,N
1565720875.8,286047000.8,N
1565720895.6,286046999.2,N
1565720915.4,286046998.1,N
1565720935.3,286046997.3,N
1565720955.1,286046997.9,N
1565720975.8,286046998.0,N
1565720995.7,286046997.6,N
1565721015.5,286046997.9,N
1565721035.4,286046995.8,N
1565721055.2,286046995.3,N
1565721075.0,286046997.9,N
1565721075.9,286046997.9,N
1565721095.8,286046997.3,N
1565721115.6,286046995.4,N
1565721135.4,286046995.6,N
1565721155.3,286046998.5,N
1565721175.1,286046996.8,N
1565721195.9,286046994.9,N
1565721215.7,286046995.3,N
1565721235.5,286046995.5,N
1565721255.4,286046997.3,N
1565721275.2,286046999.5,N
1565721295.0,286046998.7,N
1565721296.0,286047011.9,Y
1565721315.8,286046998.3,P
1565721335.6,286047000.6,P
1565721355.5,286046998.5,N
1565721375.3,286046997.4,N
1565721395.1,286046999.2,N
1565721415.9,286046995.3,Y
1565721435.7,286046996.8,P
1565721455.6,286046997.5,N
1565721475.4,286046995.4,P
1565721495.2,286046998.0,N
1565721515.1,286046996.7,N
1565721516.0,286046996.7,Y
1565721535.8,286047001.4,P
1565721555.7,286047002.6,N
1565721575.5,286047001.7,N
1565721595.3,286047000.3,N
1565721615.2,286046999.7,N
1565721635.9,286047000.2,N
1565721655.7,286047000.0,N
1565721675.6,286047000.1,N
1565721695.4,286047001.0,N
1565721715.3,286046999.9,N
1565721735.1,286046998.7,N
1565721736.0,286046998.7,N
1565721755.8,286046998.7,N
1565721775.7,286047000.4,N
1565721795.5,286047000.2,N
1565721815.3,286046998.3,N
1565721835.2,286047000.4,N
1565721855.0,286047000.1,N
1565721855.9,286047000.1,N
1565721875.8,286047002.5,N
1565721895.6,286047001.9,N
1565721915.4,286047002.7,N
1565721935.3,286047002.6,N
1565721955.1,286047000.3,N
1565721975.8,286047000.0,N
1565721995.7,286047001.0,N
1565722015.5,286046999.0,N
1565722035.4,286047000.4,N
1565722055.2,286047000.9,N
1565722075.0,286046998.7,N
1565722075.9,286046998.7,N
1565722095.8,286046998.8,N
1565722115.6,286046999.3,N
1565722135.4,286047002.7,N
1565722155.3,286047001.2,N
1565722175.1,286046996.7,N
1565722195.9,286046999.3,N
1565722215.7,286046998.5,N
1565722235.5,286046999.3,N
1565722255.4,286046998.8,N
1565722275.2,286046998.3,N
1565722295.0,286047001.2,N
1565722295.9,286047001.2,N
1565722315.8,286047001.5,N
1565722335.6,286047000.0,N
1565722355.5,286047000.7,N
1565722375.3,286047000.8,N
1565722395.1,286047000.0,N
1565722415.9,286047002.0,N
1565722435.7,286047000.4,N
1565722455.6,286047000.5,N
1565722475.4,286047002.5,N
1565722495.2,286046999.9,N
1565722515.1,286047002.8,N
1565722516.0,286047002.8,N
1565722535.8,286047001.5,N
1565722555.6,286047003.2,N
1565722575.5,286047002.5,N
1565722595.3,286047002.6,N
1565722615.2,286047004.4,N
1565722635.9,286047003.2,N
1565722655.7,286047005.6,Y
1565722675.6,286047003.8,P
1565722695.4,286047003.1,N
1565722715.3,286047004.4,P
1565722735.1,286047001.4,N
1565722736.0,286047001.4,N
1565722755.8,286047002.1,N
1565722775.7,286047006.0,Y
1565722795.5,286047003.9,P
